Location: *
(44.3683°N, 6.6958°E)
Time: 08:40:03
(UTC+00:00)

STARLINK-53 - Pass Details

Date: 14 October 2019
Orbit: 550 x 552 km, 53.0° (Epoch: 13 November)

Event Time Altitude Azimuth Distance (km) Brightness Sun altitude
Rises 17:52:52 0° 244° (WSW) 2,711 8.4 -11.7°
Reaches altitude 10° 17:55:07 10° 247° (WSW) 1,820 7.4 -12.1°
Maximum altitude 17:59:14 66° 330° (NNW) 605 3.9 -12.9°
Enters shadow 18:02:39 15° 51° (NE) 1,556 5.5 -13.5°
